Regional Weather Roundup
Issued by NWS

Home | Current Version | Previous Version | Text Only | Print | Product List | Glossary On
Versions: 1 2 3 4 5 6 7 8 9 10 11 12 13 14 15 16 17 18 19 20 21 22 23 24 25 26 27 28 29 30 31 32 33 34 35 36 37 38 39 40 41 42 43 44 45 46 47 48 49 50
000
ASUS43 KDTX 270210
RWRMI
MICHIGAN HOURLY REGIONAL WEATHER ROUNDUP
NATIONAL WEATHER SERVICE DETROIT/PONTIAC MI
1000 PM EDT TUE JUL 26 2016

NOTE: "FAIR" INDICATES FEW OR NO CLOUDS BELOW 12,000 FEET WITH NO
SIGNIFICANT WEATHER AND/OR OBSTRUCTION TO VISIBILITY.

MIZ047>049-052>055-059>063-066>070-074>076-081>083-270300-
SOUTHEAST LOWER MICHIGAN

CITY           SKY/WX    TMP DP  RH WIND       PRES   REMARKS
ADRIAN         CLEAR     74  63  68 CALM      30.02S
ALMA           CLEAR     76  64  66 W12       30.00R
ANN ARBOR      MOCLDY    69  63  81 S3        30.00S
BAD AXE        CLEAR     70  58  65 S5        29.98S
CARO           CLEAR     69  63  82 CALM      29.98R
DETROIT CITY   CLEAR     77  59  53 S6        30.00S
DETROIT        PTCLDY    76  62  62 S3        30.01R
FLINT          CLEAR     78  63  59 SW5       30.00R
GROSSE ILE     CLEAR     77  64  62 S8        30.00R
HOWELL         CLEAR     76  61  58 CALM      30.01S

CITY           SKY/WX    TMP DP  RH WIND       PRES   REMARKS
JACKSON        CLEAR     73  67  81 SW5       30.02S
LAMBERTVILLE   CLEAR     73  65  76 CALM      30.01S
LANSING        CLEAR     77  64  64 W6        30.01S
LAPEER         FAIR      71  65  81 S6        30.00R
MASON          CLEAR     73  64  75 CALM      30.01S
MONROE         CLEAR     73  64  73 CALM      30.00R
MT. CLEMENS    PTCLDY    73  63  71 S7        29.98R
PONTIAC        PTCLDY    78  62  57 W5        30.00S
PORT HURON     PTCLDY    72  63  73 CALM      30.00R
TRI CITIES     CLEAR     77  63  61 SW6       29.99R
MIDLAND        FAIR      73  63  71 CALM      29.97S
TROY           CLEAR     80  58  46 S6        30.02R
SAGINAW HB     CLEAR     73  63  68 SW5       29.98S
$$
MIZ043>046-050>051-056>058-064>065-071>073-077>080-270300-
SOUTHWEST LOWER MICHIGAN

CITY           SKY/WX    TMP DP  RH WIND       PRES   REMARKS
BATTLE CREEK   PTCLDY    73  66  78 NW5       30.03S
BENTON HARBOR  CLEAR     70  65  84 CALM      30.01S
BIG RAPIDS     CLEAR     72  63  74 W3        30.01R
COLDWATER      CLEAR     70  67  91 CALM      30.03R
FREMONT        FAIR      72  63  74 CALM      30.00S
HOLLAND        CLEAR     71  65  81 CALM      30.02S
GRAND RAPIDS   CLEAR     77  60  55 W7        30.02S
IONIA          FAIR      74  61  62 W6        30.01R
KALAMAZOO      CLEAR     75  63  66 CALM      30.02S
LUDINGTON      CLEAR     73  66  79 SW6       29.99R
MARSHALL       CLEAR     73  65  76 SW3       30.02R
MOUNT PLEASANT CLEAR     74  63  66 W3        29.98S
MUSKEGON       PTCLDY    72  65  78 CALM      30.00F
SOUTH HAVEN    CLEAR     69  66  90 CALM      30.01S
$$
MIZ016>042-270300-
NORTHERN LOWER MICHIGAN

CITY           SKY/WX    TMP DP  RH WIND       PRES   REMARKS
ALPENA         CLEAR     71  65  81 CALM      29.95R
BEAVER ISLAND  CLOUDY    74  63  67 SW10G18   29.93R
BELLAIRE       CLEAR     74  65  72 CALM      29.96R
CADILLAC       CLEAR     72  61  68 W5        30.01R
CHARLEVOIX     CLEAR     76  64  64 SW6       29.97S
FRANKFORT      CLEAR     74  63  66 SW6       29.98R
GAYLORD        CLEAR     76  60  57 W3        29.99R
GRAYLING       CLEAR     73  60  63 W3        30.00R
HARBOR SPRINGS CLEAR     74  65  75 CALM      29.94R
HOUGHTON LAKE  CLEAR     78  61  55 W7        29.99S
MANISTEE       CLEAR     75  60  59 W3        29.98R
OSCODA         CLEAR     72  62  71 SW6       29.94R
PELLSTON       CLEAR     72  63  73 CALM      29.93F
ROGERS CITY    CLEAR     71  62  71 S5        29.95S
TRAVERSE CITY  PTCLDY    79  61  53 VRB5      29.95R
$$
MIZ007>008-015-270300-
EASTERN UPPER MICHIGAN

CITY           SKY/WX    TMP DP  RH WIND       PRES   REMARKS
KINROSS        CLOUDY    73  65  75 W5        29.94R THUNDER
MACKINAC ISLAN PTCLDY    75  64  67 SW6       29.93R
NEWBERRY       CLOUDY    70  68  94 S3        29.91S
S. S. MARIE    TSTM      73  66  78 SW13      29.93R
$$
MIZ004>006-011>014-085-270300-
CENTRAL UPPER MICHIGAN

CITY           SKY/WX    TMP DP  RH WIND       PRES   REMARKS
MANISTIQUE     CLOUDY    69  67  93 CALM      29.91R
ESCANABA       PTCLDY    79  66  65 N3        29.91R
MENOMINEE      PTCLDY   N/A N/A N/A SW6       29.94R
SAWYER-GWINN   PTCLDY    70  66  88 CALM      29.94S
$$
MIZ001>003-009>011-084-270300-
WESTERN UPPER MICHIGAN

CITY           SKY/WX    TMP DP  RH WIND       PRES   REMARKS
IRON MOUNTAIN  MOCLDY    79  63  57 NW12      29.96R
HOUGHTON       CLEAR     71  64  78 NW8       29.92R
IRONWOOD       PTCLDY    72  68  88 W3        29.94R
$$

ABBREVIATIONS USED IN REMARKS
   TC - TEMPERATURE IN CELSIUS
  WCI - WIND CHILL INDEX
   HX - HEAT INDEX
  VSB - VISIBILITY





USA.gov is the U.S. government's official web portal to all federal, state and local government web resources and services.